User: anonymous
Location: Vallejo Observatory
(38.1221°N, 122.2109°W)
Time: 14:33:03
(UTC-07:00)
Language:

MOS 1 Rocket - Orbit

View from above orbital plane
View from above orbital plane
View from above satellite
View from above satellite

Ground track
Ground track

The orbit data is extracted from the following two-line orbital elements,

1 17528U 87018B   14203.18500419  .00000108  00000-0  33434-4 0  4215
2 17528 097.4630 268.5510 0154086 023.7522 356.4366 14.50007232446074
Epoch (UTC): 22 July 2014 04:26:24
Eccentricity: 0.0154086
inclination: 97.4630°
perigee height: 616 km
apogee height: 835 km
right ascension of ascending node: 268.5510°
argument of perigee: 23.7522°
revolutions per day: 14.50007232
mean anomaly at epoch: 356.4366°
orbit number at epoch: 44607

The dashed part of the orbit path shows where the satellite is in the earth's shadow,  

DLR